Date,TemperatureHighF,TemperatureAvgF,TemperatureLowF,DewpointHighF,DewpointAvgF,DewpointLowF,HumidityHigh,HumidityAvg,HumidityLow,PressureMaxIn,PressureMinIn,WindSpeedMaxMPH,WindSpeedAvgMPH,GustSpeedMaxMPH,PrecipitationSumIn
2013-1-1,54.5,45.7,39.0,38.8,33.2,29.8,43,40,38,30.04,29.99,0,-999,0,0.00
2013-1-2,57.6,44.0,35.6,35.2,30.2,28.0,42,39,38,30.01,29.90,0,-999,0,0.00
2013-1-3,57.0,44.2,36.0,37.0,31.5,28.0,43,40,37,30.04,29.93,0,-999,0,0.00
2013-1-4,58.8,46.6,38.7,37.2,33.3,29.8,42,38,34,30.07,29.96,0,-999,0,0.00
2013-1-5,57.0,49.1,39.9,46.8,40.6,32.7,44,40,37,30.04,29.84,0,-999,0,0.00
2013-1-6,52.2,49.1,43.0,47.3,43.9,38.8,46,45,44,29.99,29.84,0,-999,0,0.08
2013-1-7,60.6,49.7,41.2,52.3,42.6,37.6,46,45,44,30.04,29.96,0,-999,0,0.00
2013-1-8,64.8,52.4,45.1,52.5,42.6,38.8,46,46,44,30.01,29.93,0,-999,0,0.00
2013-1-9,59.0,50.5,45.1,49.6,42.0,33.6,46,46,46,29.93,29.81,0,-999,0,0.00
2013-1-10,54.9,48.0,42.8,36.9,31.4,27.5,46,44,41,29.99,29.87,0,-999,0,0.00
2013-1-11,55.6,46.2,37.6,36.9,31.3,27.7,42,40,38,30.04,29.90,0,-999,0,0.00
2013-1-12,52.7,42.8,36.7,34.2,26.3,18.5,40,38,36,30.04,29.93,0,-999,0,0.00
2013-1-13,51.3,39.6,32.2,25.3,21.9,17.4,37,36,35,30.04,29.96,0,-999,0,0.00
2013-1-14,51.3,39.7,31.3,21.2,17.3,14.2,36,35,33,30.19,30.01,0,-999,0,0.00
2013-1-15,55.2,42.0,33.1,25.9,22.3,18.5,35,34,34,30.25,30.16,0,-999,0,0.00
2013-1-16,57.2,42.9,33.8,29.1,25.8,23.0,35,34,33,30.22,30.01,0,-999,0,0.00
2013-1-17,62.2,45.7,34.9,32.7,28.6,25.7,35,34,34,30.04,29.93,0,-999,0,0.00
2013-1-18,63.0,47.9,37.2,35.8,30.7,27.5,38,36,34,30.01,29.90,0,-999,0,0.00
2013-1-19,62.6,47.7,36.9,34.3,30.4,25.3,38,36,36,30.01,29.93,0,-999,0,0.00
2013-1-20,63.7,47.9,37.0,37.0,29.3,25.5,37,36,35,30.01,29.90,0,-999,0,0.00
2013-1-21,63.9,47.9,36.1,34.2,29.1,24.6,37,35,34,29.96,29.84,0,-999,0,0.00
2013-1-22,62.6,49.0,37.9,36.7,31.7,27.3,36,35,35,29.87,29.78,0,-999,0,0.00
2013-1-23,55.9,51.8,48.0,48.7,41.4,32.7,40,37,36,29.87,29.75,0,-999,0,0.00
2013-1-24,58.5,55.7,52.5,52.5,50.3,48.2,43,42,39,29.96,29.84,0,-999,0,0.00
2013-1-25,67.3,60.2,56.7,57.6,53.3,51.1,45,44,43,29.96,29.81,0,-999,0,0.04
2013-1-26,63.1,54.9,46.2,53.2,41.9,32.7,45,43,40,29.87,29.78,0,-999,0,0.00
2013-1-27,59.7,51.2,46.2,38.5,32.2,25.2,43,40,38,29.96,29.87,0,-999,0,0.00
2013-1-28,60.4,50.6,44.6,39.7,34.2,30.0,40,39,38,30.07,29.93,0,-999,0,0.00
2013-1-29,59.9,49.7,41.2,39.0,35.8,33.3,39,38,37,30.13,30.04,0,-999,0,0.00
2013-1-30,68.4,53.3,44.6,41.0,35.9,31.6,41,39,37,30.13,30.04,0,-999,0,0.00
2013-1-31,65.1,51.3,41.0,43.5,36.1,32.0,44,42,40,30.07,29.96,0,-999,0,0.00
2013-2-1,67.5,52.9,42.1,45.5,39.2,36.1,45,44,42,30.01,29.90,0,-999,0,0.00
2013-2-2,59.9,51.8,46.6,47.8,42.9,38.5,47,46,45,30.07,29.99,0,-999,0,0.00
2013-2-3,61.5,52.0,45.1,46.2,39.6,36.1,47,46,45,30.04,29.93,0,-999,0,0.00
2013-2-4,60.6,50.4,42.8,47.8,42.5,36.3,48,47,47,29.99,29.87,0,-999,0,0.00
2013-2-5,59.4,52.4,44.1,44.4,40.4,35.4,48,48,47,29.96,29.87,0,-999,0,0.00
2013-2-6,62.4,49.4,41.2,43.3,35.5,32.7,48,46,45,29.99,29.90,0,-999,0,0.00
2013-2-7,59.4,48.0,40.8,45.5,35.3,29.5,46,46,46,29.99,29.81,0,-999,0,0.00
2013-2-8,55.9,47.7,42.3,41.5,34.8,25.3,47,46,46,29.81,29.75,0,-999,0,0.04
2013-2-9,60.1,47.9,37.9,28.8,25.0,22.6,46,44,41,29.90,29.78,0,-999,0,0.00
2013-2-10,61.3,46.8,35.8,30.4,27.5,24.1,43,42,40,29.93,29.81,0,-999,0,0.00
2013-2-11,64.0,48.7,38.7,31.6,27.0,23.4,43,42,40,30.01,29.84,0,-999,0,0.00
2013-2-12,62.8,48.3,37.6,40.8,31.6,25.2,43,42,40,30.13,30.01,0,-999,0,0.00
2013-2-13,65.8,50.0,39.2,41.0,34.2,31.1,45,43,41,30.13,30.01,0,-999,0,0.00
2013-2-14,69.3,53.4,41.2,40.3,34.7,32.7,45,44,41,30.04,29.93,0,-999,0,0.00
2013-2-15,72.0,55.6,43.2,38.5,34.8,32.0,45,44,42,30.04,29.99,0,-999,0,0.00
2013-2-16,68.4,54.8,44.6,41.9,37.2,31.6,46,45,44,31.02,29.81,0,-999,0,0.00
2013-2-17,66.4,52.7,44.4,45.5,38.5,34.5,47,46,45,31.02,31.02,0,-999,0,0.00
2013-2-18,55.0,48.4,41.9,41.7,34.5,29.1,47,46,45,31.02,31.02,0,-999,0,0.00
2013-2-19,50.7,46.0,41.7,41.5,34.8,29.8,47,46,46,31.02,17.73,0,-999,0,0.17
2013-2-20,61.3,47.4,36.5,37.9,31.0,27.5,47,45,42,17.73,17.73,0,-999,0,0.00
2013-2-21,61.5,48.6,39.4,37.2,30.1,24.8,46,44,42,17.73,17.73,0,-999,0,0.00
2013-2-22,64.6,49.9,37.8,36.7,31.6,25.0,45,44,41,17.73,17.73,0,-999,0,0.00
2013-2-23,61.3,51.8,46.6,44.1,32.5,24.4,46,45,44,17.73,17.73,0,-999,0,0.00
2013-2-24,63.9,50.5,39.6,26.4,24.3,21.6,45,43,41,17.73,17.73,0,-999,0,0.00
2013-2-25,64.4,49.5,38.7,36.0,31.1,23.2,45,43,40,17.73,17.73,0,-999,0,0.00
2013-2-26,67.5,51.0,39.2,33.6,27.9,22.5,45,44,41,17.73,17.73,0,-999,0,0.00
2013-2-27,68.5,52.3,38.7,37.6,30.6,24.6,44,42,41,17.73,17.73,0,-999,0,0.00
2013-2-28,69.4,55.2,44.2,47.5,40.5,35.1,43,42,41,17.73,17.73,0,-999,0,0.00
2013-3-1,72.9,57.8,46.2,51.8,42.0,39.2,43,42,39,17.73,17.73,0,-999,0,0.00
2013-3-2,71.2,59.6,50.9,48.6,43.7,39.9,45,43,42,17.73,17.73,0,-999,0,0.00
2013-3-3,67.1,57.8,50.0,48.7,42.6,35.6,45,44,43,17.73,17.73,0,-999,0,0.00
2013-3-4,62.8,53.4,46.4,40.1,37.9,34.3,43,43,41,17.73,17.73,0,-999,0,0.00
2013-3-5,66.2,53.8,45.9,43.2,36.5,31.6,42,40,38,17.73,17.73,0,-999,0,0.08
2013-3-6,59.7,52.3,44.1,45.5,37.5,31.1,43,40,39,17.73,17.73,0,-999,0,0.25
2013-3-7,61.9,50.5,41.7,43.7,35.6,30.0,42,39,38,17.73,17.73,0,-999,0,0.25
2013-3-8,62.8,52.1,47.7,44.2,38.5,32.0,46,41,39,17.73,17.73,0,-999,0,0.33
2013-3-9,68.4,54.6,45.1,40.6,34.9,30.2,42,39,35,17.73,17.73,0,-999,0,0.00
2013-3-10,72.0,55.3,42.4,43.5,33.8,28.8,39,38,36,17.73,17.73,0,-999,0,0.00
2013-3-11,75.0,55.9,42.6,44.2,35.2,30.0,39,36,34,17.73,17.73,0,-999,0,0.00
2013-3-12,75.0,58.5,47.3,46.8,42.2,37.2,42,39,36,17.73,17.73,0,-999,0,0.00
2013-3-13,77.4,60.9,48.0,53.1,43.7,38.1,43,41,40,17.73,17.73,0,-999,0,0.00
2013-3-14,73.9,60.0,49.6,50.4,41.8,29.7,43,42,40,17.73,17.73,0,-999,0,0.00
2013-3-15,72.9,57.5,46.0,46.9,40.0,33.4,43,40,38,17.73,17.73,0,-999,0,0.00
2013-3-16,73.6,59.6,51.1,48.0,41.4,29.5,44,41,36,17.73,17.73,0,-999,0,0.00
2013-3-17,71.1,56.6,44.8,38.8,34.7,31.1,39,37,35,17.73,17.73,0,-999,0,0.00
2013-3-18,65.8,55.4,44.2,42.1,37.0,31.1,40,38,37,17.73,17.73,0,-999,0,0.00
2013-3-19,70.7,56.7,46.9,46.8,37.1,31.1,43,41,40,17.73,17.73,0,-999,0,0.00
2013-3-20,70.3,59.7,53.1,53.4,46.7,40.8,45,44,43,17.73,17.73,0,-999,0,0.00
2013-3-21,68.9,56.4,47.5,44.4,35.7,31.8,45,44,43,17.73,17.73,0,-999,0,0.00
2013-3-22,71.2,55.7,43.9,36.5,28.1,18.5,45,43,40,17.73,17.73,0,-999,0,0.00
2013-3-23,69.1,55.5,43.0,36.0,28.2,21.7,42,40,38,17.73,17.73,0,-999,0,0.00
2013-3-24,73.2,56.2,43.7,41.7,37.4,32.2,40,39,38,17.73,17.73,0,-999,0,0.00
2013-3-25,63.1,53.4,44.8,43.5,37.5,33.8,41,40,38,17.73,17.73,0,-999,0,0.00
2013-3-26,70.0,56.4,47.1,41.0,38.2,35.4,41,39,38,17.73,17.73,0,-999,0,0.00
2013-3-27,67.8,58.6,49.3,46.2,43.1,40.3,43,41,40,17.73,17.73,0,-999,0,0.00
2013-3-28,73.8,63.0,56.8,52.5,47.4,42.4,45,44,42,17.73,17.73,0,-999,0,0.00
2013-3-29,80.8,64.7,55.2,50.4,46.9,42.6,46,43,42,17.73,17.73,0,-999,0,0.00
2013-3-30,77.7,63.7,57.7,52.2,48.0,37.4,46,45,43,17.73,17.73,0,-999,0,0.00
2013-3-31,70.9,62.2,55.6,54.0,47.1,39.6,49,44,41,17.73,17.73,0,-999,0,0.04
2013-4-1,70.3,61.6,55.9,55.0,47.8,41.0,48,45,43,17.73,17.73,0,-999,0,0.12
2013-4-2,74.1,60.0,49.6,49.6,45.3,41.5,45,43,42,17.73,17.73,0,-999,0,0.00
2013-4-3,80.2,62.8,54.0,47.7,45.7,42.3,46,44,42,17.73,17.73,0,-999,0,0.00
2013-4-4,70.9,61.6,55.8,56.5,49.4,45.0,49,46,44,17.73,17.73,0,-999,0,0.08
2013-4-5,72.1,61.9,55.6,49.6,45.0,39.4,47,45,43,17.73,17.73,0,-999,0,0.00
2013-4-6,71.8,60.6,53.6,48.9,44.5,39.4,47,46,44,17.73,17.73,0,-999,0,0.00
2013-4-7,71.2,59.5,53.6,48.9,44.1,37.4,48,46,45,17.73,17.73,0,-999,0,0.00
2013-4-8,69.8,56.9,48.9,47.1,32.4,27.3,47,45,43,17.73,17.73,0,-999,0,0.00
2013-4-9,76.5,62.7,52.9,33.6,31.0,28.4,45,43,41,17.73,17.73,0,-999,0,0.00
2013-4-10,87.4,67.8,53.6,42.8,37.3,31.3,44,43,41,17.73,17.73,0,-999,0,0.00
2013-4-11,73.2,61.2,51.3,46.4,39.3,32.4,45,44,42,17.73,17.73,0,-999,0,0.00
2013-4-12,77.7,59.4,46.2,44.4,40.2,36.0,45,44,43,17.73,17.73,0,-999,0,0.00
2013-4-13,74.1,58.6,48.0,43.0,37.5,30.2,43,40,35,17.73,17.73,0,-999,0,0.00
2013-4-14,74.3,56.9,44.4,41.0,34.3,30.7,39,38,36,17.73,17.73,0,-999,0,0.00
2013-4-15,62.6,53.3,47.1,43.7,32.5,25.3,40,38,36,17.73,17.73,0,-999,0,0.00
2013-4-16,69.6,54.5,40.6,31.5,28.0,22.6,37,35,34,17.73,17.73,0,-999,0,0.00
2013-4-17,72.0,59.0,46.6,29.5,26.9,22.3,36,34,32,17.73,17.73,0,-999,0,0.00
2013-4-18,78.4,61.0,45.7,39.0,31.1,25.9,34,33,32,17.73,17.73,0,-999,0,0.00
2013-4-19,83.5,64.0,48.6,45.0,37.0,31.5,35,34,33,17.73,17.73,0,-999,0,0.00
2013-4-20,82.6,65.0,51.1,42.6,38.4,35.2,36,35,34,17.73,17.73,0,-999,0,0.00
2013-4-21,87.8,67.1,50.5,48.4,38.8,28.4,39,35,33,17.73,17.73,0,-999,0,0.00
2013-4-22,89.1,69.8,55.0,44.6,37.5,24.4,35,33,32,17.73,17.73,0,-999,0,0.00
2013-4-23,85.3,65.7,53.6,41.5,34.3,22.1,34,33,31,17.73,17.73,0,-999,0,0.00
2013-4-24,73.8,60.6,50.0,45.3,42.0,37.0,38,36,33,17.73,17.73,0,-999,0,0.00
2013-4-25,71.4,60.6,51.6,47.8,43.1,40.1,42,40,38,17.73,17.73,0,-999,0,0.00
2013-4-26,73.8,60.9,52.2,44.6,42.2,40.6,42,40,39,17.73,17.73,0,-999,0,0.00
2013-4-27,78.8,62.4,54.3,46.8,43.8,41.5,42,41,39,17.73,17.73,0,-999,0,0.00
2013-4-28,86.0,66.6,54.3,47.8,45.5,41.2,42,41,39,17.73,17.73,0,-999,0,0.00
2013-4-29,91.8,71.6,56.8,52.5,44.0,37.6,42,39,38,17.73,17.73,0,-999,0,0.00
2013-4-30,85.1,68.0,54.9,48.2,40.5,31.6,39,37,34,17.73,17.73,0,-999,0,0.00
2013-5-1,86.9,69.3,53.8,36.7,27.6,21.7,34,33,32,17.73,17.73,0,-999,0,0.00
2013-5-2,92.5,72.1,54.1,37.8,30.6,22.6,34,33,31,17.73,17.73,0,-999,0,0.00
2013-5-3,91.2,72.1,56.5,37.6,30.2,24.3,32,31,31,17.73,17.73,0,-999,0,0.00
2013-5-4,90.1,70.4,55.8,47.5,38.4,31.1,34,32,31,17.73,17.73,0,-999,0,0.00
2013-5-5,74.7,63.5,57.9,42.1,38.9,34.7,35,34,33,17.73,17.73,0,-999,0,0.00
2013-5-6,74.1,63.3,54.7,44.2,40.8,37.4,39,37,35,17.73,17.73,0,-999,0,0.00
2013-5-7,72.5,64.0,56.7,48.4,42.6,35.2,40,39,37,17.73,17.73,0,-999,0,0.00
2013-5-8,72.3,60.8,54.3,48.4,43.6,39.2,42,40,39,17.73,17.73,0,-999,0,0.00
2013-5-9,73.8,61.9,55.2,45.3,42.7,39.7,42,40,39,17.73,17.73,0,-999,0,0.00
2013-5-10,74.1,62.8,55.4,48.6,45.8,42.4,43,42,40,17.73,17.73,0,-999,0,0.00
2013-5-11,88.0,68.6,57.7,50.9,48.4,44.4,44,43,41,17.73,17.73,0,-999,0,0.00
2013-5-12,85.3,68.1,54.7,52.7,47.7,42.8,50,43,38,17.73,17.73,0,-999,0,0.00
2013-5-13,82.2,66.5,54.1,50.9,45.7,40.1,45,42,38,17.73,17.73,0,-999,0,0.00
2013-5-14,81.0,65.6,54.5,48.0,41.1,30.4,43,39,33,17.73,17.73,0,-999,0,0.00
2013-5-15,73.0,61.4,51.1,43.7,37.9,32.9,38,36,34,17.73,17.73,0,-999,0,0.00
2013-5-16,75.4,63.0,56.7,49.6,43.1,37.4,43,40,37,17.73,17.73,0,-999,0,0.00
2013-5-17,76.8,61.4,51.6,42.3,38.1,32.5,42,38,35,17.73,17.73,0,-999,0,0.00
2013-5-18,80.2,63.1,49.3,44.4,39.2,35.1,39,37,35,17.73,17.73,0,-999,0,0.00
2013-5-19,87.1,67.5,51.6,46.4,39.0,33.6,39,37,36,17.73,17.73,0,-999,0,0.00
2013-5-20,91.9,70.3,53.8,50.2,36.7,22.6,40,38,35,17.73,17.73,0,-999,0,0.00
2013-5-21,74.7,62.3,52.3,45.9,37.4,27.7,40,38,36,17.73,17.73,0,-999,0,0.00
2013-5-22,71.6,57.2,48.4,33.3,28.5,25.2,37,36,34,17.73,17.73,0,-999,0,0.00
2013-5-23,73.2,57.9,46.4,39.2,32.9,27.0,38,37,35,17.73,17.73,0,-999,0,0.00
2013-5-24,76.8,58.2,45.9,41.7,34.2,28.4,38,37,36,17.73,17.73,0,-999,0,0.00
2013-5-25,72.3,58.1,47.1,41.2,36.3,32.5,39,37,36,17.73,17.73,0,-999,0,0.00
2013-5-26,77.9,63.8,53.6,46.6,42.9,37.4,40,38,36,17.73,17.73,0,-999,0,0.00
2013-5-27,68.2,61.8,52.9,51.6,44.9,41.9,43,41,38,17.73,17.73,0,-999,0,0.00
2013-5-28,78.1,65.6,58.6,53.1,47.6,39.0,46,43,39,17.73,17.73,0,-999,0,0.00
2013-5-29,78.6,64.8,56.3,49.5,41.8,33.3,43,40,36,17.73,17.73,0,-999,0,0.00
2013-5-30,82.4,63.5,49.1,45.1,37.2,29.3,38,36,34,17.73,17.73,0,-999,0,0.00
2013-5-31,91.8,68.2,50.9,46.2,40.0,32.0,37,36,34,17.73,17.73,0,-999,0,0.00
2013-6-1,92.8,71.8,55.2,50.0,44.9,40.1,41,38,36,17.73,17.73,0,-999,0,0.00
2013-6-2,81.7,66.8,57.9,48.4,46.5,44.1,42,40,38,17.73,17.73,0,-999,0,0.00
2013-6-3,81.7,65.5,53.6,48.0,45.2,42.1,42,40,38,17.73,17.73,0,-999,0,0.00
2013-6-4,77.0,65.9,59.5,48.9,46.9,43.9,44,42,39,17.73,17.73,0,-999,0,0.00
2013-6-5,75.7,65.2,60.1,49.1,47.0,44.1,44,42,41,17.73,17.73,0,-999,0,0.00
2013-6-6,82.2,67.1,59.7,49.5,47.9,44.8,45,43,41,17.73,17.73,0,-999,0,0.00
2013-6-7,92.1,72.6,61.0,53.4,50.7,47.3,46,43,41,17.73,17.73,0,-999,0,0.00
2013-6-8,89.6,72.9,60.6,54.9,50.7,47.3,46,43,41,17.73,17.73,0,-999,0,0.00
2013-6-9,84.6,69.9,61.7,53.2,49.3,43.0,50,44,39,17.73,17.73,0,-999,0,0.00
2013-6-10,81.1,67.8,58.1,48.4,44.0,41.4,40,39,37,17.73,17.73,0,-999,0,0.00
2013-6-11,77.4,66.4,60.6,49.8,47.6,43.7,44,43,40,17.73,17.73,0,-999,0,0.00
2013-6-12,86.0,66.3,53.2,48.9,40.1,27.0,43,40,34,17.73,17.73,0,-999,0,0.00
2013-6-13,85.6,66.4,50.5,44.2,37.5,30.0,37,35,34,17.73,17.73,0,-999,0,0.00
2013-6-14,90.5,69.5,54.1,49.1,40.2,28.4,38,35,33,17.73,17.73,0,-999,0,0.00
2013-6-15,76.3,63.9,54.7,47.1,43.8,38.8,39,38,36,17.73,17.73,0,-999,0,0.00
2013-6-16,85.3,66.3,52.9,49.1,43.4,38.1,41,39,37,17.73,17.73,0,-999,0,0.00
2013-6-17,80.4,66.1,56.5,48.6,44.9,40.8,43,40,37,17.73,17.73,0,-999,0,0.00
2013-6-18,70.5,59.3,53.8,46.8,43.3,38.8,43,40,38,17.73,17.73,0,-999,0,0.00
2013-8-17,81.3,71.5,61.2,63.7,61.0,58.3,65,62,59,29.80,29.70,0,-999,0,0.00
2013-8-18,94.3,73.8,59.5,66.0,61.1,57.4,69,63,57,29.71,29.57,0,-999,0,0.00
2013-8-19,91.0,73.6,63.1,66.4,61.5,57.4,66,57,49,29.72,29.60,6,-612,6,0.00
2013-8-20,84.4,70.4,62.2,65.1,61.1,57.4,70,61,50,29.70,29.61,7,1,7,0.11
2013-8-21,79.5,67.4,61.2,61.5,57.8,55.2,64,59,53,29.75,29.66,8,1,8,0.00
2013-8-22,77.7,66.6,59.2,60.4,56.7,54.1,59,57,54,29.78,29.69,8,1,8,0.00
2013-8-23,79.5,66.4,59.0,61.2,56.6,54.0,59,58,57,29.75,29.63,8,1,8,0.00
2013-8-24,85.5,67.7,53.4,63.9,57.2,50.7,61,59,57,29.72,29.66,11,1,11,0.00
2013-8-25,86.4,70.3,60.4,66.0,60.5,57.4,66,61,55,29.76,29.67,8,1,8,0.00
2013-8-26,82.8,69.0,59.5,62.4,56.7,50.5,59,57,51,29.82,29.72,8,1,8,0.00
2013-8-27,86.4,67.8,54.1,63.3,55.6,48.9,58,56,54,29.73,22.69,49,1,49,0.00
2013-8-28,84.4,68.8,57.4,65.7,60.3,53.6,66,60,57,29.77,29.67,6,1,7,0.00
2013-8-29,85.8,71.6,64.4,66.0,62.5,60.4,68,63,55,29.86,29.76,7,1,7,0.00
2013-8-30,92.7,73.9,61.3,66.4,61.6,55.2,69,60,52,29.86,29.73,6,1,6,0.00
2013-8-31,84.0,69.1,56.5,63.9,58.7,52.7,67,57,52,29.79,29.71,5,1,5,0.00
2013-9-1,85.3,70.2,60.4,63.0,59.4,55.0,66,59,53,29.76,29.68,7,1,7,0.34
2013-9-2,80.2,71.2,65.3,66.0,62.2,59.5,66,63,55,29.77,29.69,6,1,6,0.00
2013-9-3,85.8,68.5,55.8,60.4,55.1,49.1,62,54,47,29.82,29.74,7,1,7,0.00
2013-9-4,84.4,68.1,55.4,62.2,55.3,51.8,58,53,48,29.85,29.76,10,2,10,0.00
2013-9-5,83.8,67.9,56.3,60.3,55.2,50.4,61,53,46,29.83,29.77,10,1,10,0.00
2013-9-6,93.9,71.7,53.1,59.5,52.8,48.7,59,52,47,29.81,29.62,5,1,5,0.00
2013-9-7,98.1,76.2,59.9,61.7,54.2,48.6,52,49,46,29.68,29.59,10,1,10,0.00
2013-9-8,92.8,71.4,57.7,64.9,59.0,53.2,64,55,49,29.68,29.56,6,1,6,0.00
2013-9-9,94.3,71.4,58.1,66.7,60.0,54.1,58,55,53,29.62,29.52,5,1,5,0.00
2013-9-10,84.7,69.9,60.1,63.3,60.0,55.4,66,59,53,29.71,29.55,7,1,7,0.00
2013-9-11,80.4,66.3,55.2,61.5,57.0,52.9,61,56,53,29.79,29.70,6,1,6,0.00
2013-9-12,79.9,67.6,59.7,63.9,59.0,55.6,63,59,57,29.79,29.68,8,1,8,0.00
2013-9-13,79.5,67.1,59.4,62.4,58.6,55.9,65,61,57,29.73,29.60,5,1,5,0.00
2013-9-14,78.1,65.6,56.5,61.5,57.2,53.4,63,59,56,29.65,29.57,7,1,7,0.00
2013-9-15,83.1,66.5,53.6,60.8,56.2,50.4,61,58,54,29.68,29.61,8,1,8,0.00
2013-9-16,86.2,68.7,57.2,63.5,57.1,51.8,62,55,46,29.70,29.61,8,1,8,0.00
2013-9-17,79.5,65.9,56.5,58.1,53.7,49.6,61,55,50,29.70,29.66,15,2,15,0.00
2013-9-18,88.0,67.3,52.5,56.1,49.6,37.9,57,54,52,29.72,29.61,8,1,8,0.00
2013-9-19,92.7,68.6,51.4,58.6,51.0,42.3,55,54,52,29.66,29.55,5,1,5,0.00
2013-9-20,80.6,64.3,51.1,61.5,54.2,44.2,58,55,53,29.68,29.58,28,2,28,0.00
2013-9-21,73.6,62.6,55.2,63.1,57.7,53.2,61,59,57,29.71,29.62,12,1,12,0.34
2013-9-22,76.8,61.8,50.9,58.5,53.0,48.7,62,60,59,29.82,29.70,8,1,8,0.00
2013-9-23,85.6,66.7,53.1,59.5,54.5,50.5,61,59,57,29.82,29.72,5,1,5,0.00
2013-9-24,79.5,64.9,55.4,57.9,52.9,47.8,61,56,52,29.81,29.74,13,2,13,0.00
2013-9-25,73.8,61.9,54.0,51.1,47.2,41.0,55,51,47,29.75,29.64,14,2,14,0.00
2013-9-26,78.6,62.1,49.8,45.3,41.4,33.3,55,52,47,29.78,29.63,10,2,10,0.00
2013-9-27,82.8,63.0,48.7,48.7,40.8,31.8,53,48,42,29.90,29.78,8,1,8,0.00
2013-9-28,86.0,64.7,48.4,55.6,45.3,36.9,52,48,46,29.90,29.79,6,1,6,0.00
2013-9-29,79.7,65.3,53.4,60.4,56.0,51.1,56,54,52,29.91,29.84,8,1,8,0.00
2013-9-30,79.0,65.7,57.2,63.5,58.8,50.5,61,58,56,29.89,29.77,8,1,8,0.00
2013-10-1,76.3,61.6,49.6,54.7,50.1,45.7,58,55,53,29.82,29.72,7,1,7,0.00
2013-10-2,79.7,61.8,50.4,56.1,47.9,36.1,56,55,53,29.82,29.73,8,1,26,0.00
2013-10-3,75.6,62.2,48.6,47.7,39.1,29.7,56,54,53,29.87,29.74,10,2,10,0.00
2013-10-4,82.6,67.9,53.6,41.0,32.9,25.2,54,52,49,29.90,29.77,10,2,10,0.00
2013-10-5,87.8,66.8,51.1,41.5,34.9,25.5,54,50,47,29.99,29.89,6,1,6,0.00
2013-10-6,89.1,66.5,50.2,49.8,39.1,32.5,53,49,47,29.91,29.79,5,1,5,0.00
2013-10-7,86.5,66.1,52.2,53.1,39.3,21.2,52,48,46,29.80,29.67,6,1,6,0.00
2013-10-8,79.5,61.1,48.0,54.5,46.0,38.5,54,50,48,29.70,29.52,6,1,6,0.00
2013-10-9,72.0,57.4,46.2,52.5,46.0,42.6,54,53,51,29.53,29.42,6,1,6,0.00
2013-10-21,72.9,57.4,49.1,55.8,51.5,47.8,57,53,50,29.90,29.71,2,0,2,0.00
2013-10-22,75.4,58.1,48.6,57.7,52.5,47.5,57,54,52,29.83,29.71,4,1,4,0.00
2013-10-23,69.4,56.6,51.4,56.7,52.7,50.2,56,55,53,29.79,29.70,6,1,6,0.00
2013-10-24,62.6,54.3,46.4,53.2,50.5,45.9,57,56,55,29.91,29.77,6,1,6,0.00
2013-10-25,71.2,56.0,44.1,54.7,49.5,43.5,58,57,56,29.96,29.87,58,1,58,0.00
2013-10-26,79.3,59.0,45.9,57.2,49.4,45.1,59,58,56,29.94,29.80,5,1,5,0.00
2013-10-27,68.4,55.1,46.2,54.0,48.8,43.7,59,58,58,29.83,29.50,21,3,21,0.00
2013-10-28,66.6,56.9,52.3,51.3,47.4,43.7,59,57,53,29.66,29.47,16,3,16,0.00
2013-10-29,64.8,55.4,46.0,52.0,47.6,43.0,57,54,52,29.86,29.66,5,1,5,0.00
2013-10-30,68.9,53.5,42.8,52.9,45.9,42.1,55,53,51,29.95,29.85,6,1,6,0.00
2013-10-31,75.4,56.5,43.9,50.9,44.6,41.2,54,52,49,29.98,29.86,4,0,4,0.00
2013-11-1,77.9,64.7,46.0,47.7,45.5,43.0,55,53,51,29.94,29.81,3,1,3,0.00
2013-11-2,73.0,55.0,45.7,54.9,46.3,41.2,56,55,53,29.82,29.72,5,1,5,0.00
2013-11-3,63.7,47.6,43.5,45.9,41.7,24.4,56,55,53,29.84,29.75,4,0,4,0.00
2013-11-5,73.9,50.3,45.3,37.9,34.9,30.6,53,51,50,29.96,29.86,3,0,3,0.00
2013-11-6,75.0,64.5,44.6,40.8,36.5,32.4,53,51,50,30.03,29.95,3,1,3,0.02
2013-11-7,76.8,59.0,47.8,49.3,43.5,36.3,55,54,51,29.94,29.86,4,0,4,0.00
2013-11-8,74.7,56.3,44.8,55.9,48.6,43.5,56,54,52,29.88,29.75,4,0,5,0.00
2013-11-9,76.1,55.7,43.7,56.5,47.9,43.2,55,53,52,29.84,29.75,4,0,4,0.00
2013-11-10,67.8,53.5,44.2,53.6,48.9,43.2,57,53,51,29.92,29.82,4,0,4,0.00
2013-11-11,68.0,57.3,48.4,54.3,51.5,47.1,56,54,52,29.96,29.87,4,0,4,0.00
2013-11-12,75.7,60.6,50.4,55.4,49.9,44.4,56,54,52,30.06,29.95,4,-13,46,0.00
2013-11-13,79.9,59.8,47.3,56.8,50.4,45.3,56,54,51,30.05,29.91,4,1,4,0.00
2013-11-14,68.4,60.2,51.8,56.3,53.8,51.3,57,54,54,29.90,29.75,4,1,4,0.00
2013-11-15,71.4,54.6,42.8,46.4,41.5,37.9,52,51,49,29.60,29.52,5,1,5,0.00
2013-11-16,67.5,51.1,39.9,50.0,44.3,37.8,52,49,47,29.73,29.57,8,1,8,0.00
2013-11-17,68.9,51.6,41.9,54.9,46.1,41.7,53,51,48,29.88,29.72,6,1,6,0.00
2013-11-18,65.7,54.0,41.2,49.8,47.1,-7.1,54,50,47,29.94,22.69,47,1,47,0.00
2013-11-19,65.8,58.5,49.6,57.6,54.0,47.7,55,53,50,29.89,29.75,8,0,8,0.45
2013-11-20,68.2,56.0,50.2,65.1,55.0,49.8,58,56,55,29.75,29.65,8,0,8,0.71
2013-11-21,64.2,53.6,46.0,51.3,41.8,23.9,58,55,51,29.79,29.69,7,1,7,0.00
2013-11-22,71.1,52.4,38.8,38.5,29.8,14.9,51,47,45,29.84,29.70,6,1,6,0.00
2013-11-23,68.4,51.2,39.7,44.8,38.3,31.1,54,49,45,29.89,29.75,4,0,4,0.00
2013-11-24,68.2,50.4,39.0,49.3,42.3,37.9,54,50,47,30.04,29.89,4,0,4,0.00
2013-11-25,67.3,50.7,39.4,50.9,42.9,38.8,53,49,46,30.12,30.04,4,0,4,0.00
2013-11-26,64.9,51.8,42.1,48.9,44.3,39.7,54,50,47,30.05,29.82,4,0,4,0.00
2013-11-27,66.0,52.6,41.5,51.3,45.6,41.0,54,51,47,29.82,29.63,4,0,4,0.00
2013-11-28,70.5,54.2,45.3,52.7,45.3,42.1,56,52,50,29.88,29.65,5,0,5,0.00
2013-11-29,73.6,53.6,41.9,49.8,43.6,38.8,54,51,49,30.01,29.87,4,0,4,0.00
2013-11-30,70.7,51.9,41.5,53.2,44.0,38.5,53,50,47,30.06,29.98,5,0,5,0.00
2013-12-1,71.1,53.7,41.0,52.9,45.3,40.6,54,51,48,30.13,30.01,4,0,4,0.00
2013-12-2,65.1,51.1,41.4,56.5,47.2,41.2,54,51,48,30.03,29.78,5,0,5,0.00
2013-12-3,58.5,49.8,38.3,52.0,40.7,34.2,55,50,46,29.78,29.65,11,2,11,0.00
2013-12-4,56.3,41.7,32.7,37.9,25.9,14.5,49,45,42,29.87,29.73,6,1,6,0.00
2013-12-5,55.0,38.6,28.6,26.8,20.2,13.6,46,41,36,29.96,29.86,6,1,6,0.00
2013-12-6,57.2,44.2,31.1,48.7,36.0,26.2,45,41,37,29.99,29.71,13,1,13,0.21
2013-12-7,52.2,43.5,32.2,48.6,33.5,25.0,48,44,41,30.03,29.71,15,2,15,0.28
2013-12-8,49.1,36.6,29.5,31.3,25.6,20.8,45,41,37,30.12,30.01,6,1,6,0.00
2013-12-9,53.2,37.3,27.0,26.6,19.8,10.0,42,36,34,30.20,30.09,5,1,5,0.00
2013-12-10,55.2,39.0,28.4,32.9,27.3,22.8,43,37,34,30.19,29.98,5,1,5,0.00
2013-12-11,58.1,42.1,32.0,34.5,29.5,25.7,45,40,38,30.02,29.95,5,1,5,0.00
2013-12-12,61.3,43.5,31.5,38.8,32.1,27.1,46,42,39,30.05,29.94,6,0,6,0.00
2013-12-13,63.1,45.1,33.8,48.6,35.1,29.7,47,44,42,30.12,30.00,4,0,4,0.00
2013-12-14,64.0,46.1,34.0,48.4,36.0,31.1,49,45,43,30.17,30.08,5,0,5,0.00
2013-12-15,63.0,46.8,34.7,42.6,36.2,30.6,50,45,43,30.14,30.01,5,1,5,0.00
2013-12-16,68.0,50.9,37.8,43.2,36.8,33.6,49,46,44,30.02,29.89,5,1,5,0.00
2013-12-17,67.6,51.1,39.9,45.3,39.7,35.1,49,46,44,29.95,29.81,4,0,4,0.00
2013-12-18,65.8,50.3,41.7,48.2,43.2,37.8,48,46,44,29.82,29.59,10,1,10,0.00
2013-12-19,60.4,49.7,41.9,47.3,37.6,22.5,50,46,43,29.73,29.52,12,1,12,0.00
2013-12-20,64.4,46.8,34.9,29.7,22.7,14.5,46,41,38,29.81,29.71,7,1,7,1.19
2013-12-21,65.3,48.3,37.8,50.4,41.3,29.3,46,43,40,29.87,29.75,8,1,8,0.00
2013-12-22,71.1,51.0,39.0,49.5,40.2,33.6,48,45,43,30.07,29.87,6,0,6,0.00
2013-12-23,66.2,49.8,38.8,50.7,41.4,37.6,51,46,43,30.18,30.07,5,0,5,0.00
2013-12-24,74.1,52.7,39.7,48.7,39.8,35.6,54,47,44,30.13,29.99,4,1,4,0.00
2013-12-25,67.8,50.1,38.7,45.1,39.2,35.1,55,47,44,30.09,29.99,7,1,7,0.00
2013-12-26,69.3,50.3,37.8,49.5,39.4,35.1,52,46,41,30.04,29.95,5,0,5,0.00
2013-12-27,62.8,48.1,37.4,46.0,39.8,33.8,51,46,44,30.03,29.90,4,0,52,0.00
2013-12-28,69.8,49.0,35.6,42.8,33.1,26.4,49,47,44,29.94,29.82,6,1,6,0.00
2013-12-29,73.0,51.9,40.5,36.3,27.5,16.7,47,45,42,29.96,29.88,5,1,5,0.00
2013-12-30,68.9,48.4,35.6,41.4,33.2,25.7,47,44,42,30.04,29.96,4,0,4,0.01
2013-12-31,62.2,46.4,36.1,48.0,37.6,30.9,46,44,42,30.06,29.93,5,0,5,0.00
2014-1-1,66.6,48.4,34.9,47.7,37.5,30.6,47,43,39,30.00,29.91,4,0,4,0.00
2014-1-2,70.0,50.3,37.9,43.5,36.2,32.0,46,42,39,29.97,29.84,5,0,5,0.00